,,PA_Meas_PMT16A,,PR_Meas_QMR101_102,,RH_Meas_QMH101,,SR_Meas_QMS101,,TA_Meas_QMH101,,GenWind,,GenWind,
time,status,PA,status,PR,status,RH,status,SR,status,TA,status,DirAvg,status,SpdAvg,
2016-10-28, 00:15:04,VALID,916.047,VALID,0,VALID,66.8802,VALID,159.443,VALID,26.2144,VALID,143,VALID,0,
2016-10-28, 00:16:04,VALID,917.708,VALID,0,VALID,67.8027,VALID,180.931,VALID,26.1753,VALID,38,VALID,0,
2016-10-28, 00:17:04,VALID,916.856,VALID,0,VALID,69.1215,VALID,184.262,VALID,26.1362,VALID,17,VALID,0.0195313,
2016-10-28, 00:18:04,VALID,916.49,VALID,0,VALID,67.6197,VALID,177.493,VALID,26.1167,VALID,42,VALID,0,
2016-10-28, 00:19:04,VALID,917.378,VALID,0,VALID,66.6439,VALID,116.896,VALID,26.1382,VALID,299,VALID,0,
2016-10-28, 00:20:04,VALID,916.324,VALID,0,VALID,68.2524,VALID,103.251,VALID,25.9624,VALID,290,VALID,0,
2016-10-28, 14:30:04,VALID,918.896,VALID,0,INVALID,119.146,VALID,168.145,VALID,19.9984,VALID,181,VALID,0,
2016-10-28, 14:31:04,VALID,918.869,VALID,0,INVALID,119.261,VALID,184.584,VALID,20.0179,VALID,181,VALID,0,
2016-10-28, 14:32:04,VALID,918.874,VALID,0,INVALID,119.451,VALID,198.551,VALID,20.0358,VALID,154,VALID,0,
2016-10-28, 14:33:04,VALID,918.846,VALID,0,INVALID,119.718,VALID,201.237,VALID,20.0749,VALID,40,VALID,0,
2016-10-28, 14:34:04,VALID,918.877,VALID,0,INVALID,119.825,VALID,198.336,VALID,20.1139,VALID,40,VALID,0,
2016-10-28, 14:35:04,VALID,918.858,VALID,0,INVALID,120.13,VALID,196.08,VALID,20.1724,VALID,40,VALID,0,
2016-10-28, 14:36:04,VALID,918.886,VALID,0,INVALID,120.45,VALID,195.435,VALID,20.2309,VALID,44,VALID,0,
2016-10-28, 14:37:04,VALID,918.882,VALID,0,INVALID,120.763,VALID,281.281,VALID,20.3089,VALID,46,VALID,0,
2016-10-28, 14:38:04,VALID,918.906,VALID,0,INVALID,121.372,VALID,231.751,VALID,20.3284,VALID,38,VALID,0,
2016-10-28, 14:39:04,VALID,918.92,VALID,0,INVALID,121.395,VALID,210.155,VALID,20.504,VALID,38,VALID,0,
2016-10-28, 14:40:04,VALID,918.971,VALID,0,INVALID,121.441,VALID,254.313,VALID,20.6795,VALID,38,VALID,0,
2016-10-28, 14:41:04,VALID,918.997,VALID,0,INVALID,121.54,VALID,336.076,VALID,20.7966,VALID,48,VALID,0,
2016-10-28, 14:42:04,VALID,919.01,VALID,0,INVALID,120.785,VALID,265.057,VALID,20.8941,VALID,26,VALID,0,
2016-10-28, 14:43:04,VALID,919.05,VALID,0,INVALID,119.787,VALID,269.033,VALID,20.9722,VALID,25,VALID,0,
2016-10-28, 14:44:04,VALID,919.097,VALID,0,INVALID,119.2,VALID,236.371,VALID,21.0096,VALID,16,VALID,0,
2016-10-28, 14:45:04,VALID,919.1,VALID,0,INVALID,119.482,VALID,220.469,VALID,21.1282,VALID,24,VALID,0,
2016-10-28, 14:46:04,VALID,919.122,VALID,0,INVALID,120.015,VALID,341.126,VALID,21.2648,VALID,9,VALID,0,
2016-10-28, 14:47:04,VALID,919.167,VALID,0,INVALID,118.62,VALID,390.871,VALID,21.2843,VALID,37,VALID,0,
2016-10-28, 14:48:04,VALID,919.16,VALID,0,INVALID,119.505,VALID,380.342,VALID,21.3803,VALID,38,VALID,0,
2016-10-28, 14:49:04,VALID,919.212,VALID,0,INVALID,120.488,VALID,373.788,VALID,21.6356,VALID,42,VALID,0,
2016-10-28, 14:50:04,VALID,919.225,VALID,0,INVALID,120.282,VALID,353.481,VALID,21.751,VALID,23,VALID,0,
2016-10-28, 14:51:04,VALID,919.247,VALID,0,INVALID,119.131,VALID,445.129,VALID,21.8681,VALID,26,VALID,0,
2016-10-28, 14:52:04,VALID,919.255,VALID,0,INVALID,117.744,VALID,459.203,VALID,21.9283,VALID,17,VALID,0,
2016-10-28, 14:53:04,VALID,919.29,VALID,0,INVALID,117.965,VALID,374.647,VALID,22.0047,VALID,46,VALID,0,
2016-10-28, 14:54:04,VALID,919.321,VALID,0,INVALID,118.087,VALID,395.061,VALID,22.1217,VALID,46,VALID,0,
2016-10-28, 14:55:04,VALID,919.333,VALID,0,VALID,100.103,VALID,471.882,VALID,22.26,VALID,37,VALID,0,
2016-10-28, 14:56:04,VALID,919.364,VALID,0,VALID,89.0491,VALID,466.08,VALID,22.395,VALID,37,VALID,0,
2016-10-28, 14:57:04,VALID,919.38,VALID,0,VALID,86.3047,VALID,471.989,VALID,22.6096,VALID,16,VALID,0,
2016-10-28, 14:58:04,VALID,919.361,VALID,0,VALID,99.3255,VALID,466.509,VALID,22.8048,VALID,85,VALID,0,
2016-10-28, 14:59:04,VALID,919.406,VALID,0,VALID,93.12,VALID,506.37,VALID,22.9787,VALID,84,VALID,0,
2016-10-28, 15:00:04,VALID,919.417,VALID,0,VALID,82.493,VALID,513.246,VALID,23.2928,VALID,84,VALID,0,
2016-10-28, 15:01:04,VALID,919.451,VALID,0,VALID,80.5948,VALID,528.61,VALID,23.5076,VALID,347,VALID,0,
2016-10-28, 15:02:04,VALID,919.443,VALID,0,VALID,76.3714,VALID,494.981,VALID,23.5076,VALID,12,VALID,1.67344,
2016-10-28, 15:03:04,VALID,919.417,VALID,0,VALID,74.6409,VALID,368.523,VALID,23.3691,VALID,17,VALID,0.498437,
2016-10-28, 15:04:04,VALID,919.467,VALID,0,VALID,74.3664,VALID,374.003,VALID,23.213,VALID,45,VALID,0,
2016-10-28, 15:05:04,VALID,919.445,VALID,0,VALID,77.3091,VALID,552.462,VALID,23.1154,VALID,49,VALID,0.297656,
2016-10-28, 15:06:04,VALID,919.468,VALID,0,VALID,76.8059,VALID,553.752,VALID,23.213,VALID,9,VALID,0,
2016-10-28, 15:07:04,VALID,919.486,VALID,0,VALID,77.4996,VALID,546.123,VALID,23.2715,INVALID,360,VALID,0,
2016-10-28, 15:08:04,VALID,919.505,VALID,0,VALID,77.3014,VALID,539.14,VALID,23.2893,VALID,336,VALID,0,
2016-10-28, 15:09:04,VALID,919.548,VALID,0,VALID,76.2875,VALID,532.478,VALID,23.1917,VALID,293,VALID,0.965625,
2016-10-28, 15:10:04,VALID,919.559,VALID,0,VALID,76.2037,VALID,533.338,VALID,22.9185,VALID,246,VALID,0,
2016-10-28, 15:11:04,VALID,919.595,VALID,0,VALID,78.8337,VALID,514.965,VALID,22.8599,VALID,249,VALID,0,
2016-10-28, 15:12:04,VALID,919.553,VALID,0,VALID,76.562,VALID,505.081,VALID,22.938,VALID,353,VALID,0,
2016-10-28, 15:13:04,VALID,919.557,VALID,0,VALID,76.2875,VALID,506.155,VALID,23.0356,VALID,337,VALID,1.41719,
2016-10-28, 15:14:04,VALID,919.601,VALID,0,VALID,76.0969,VALID,498.419,VALID,23.1917,VALID,318,VALID,0.00585938,
2016-10-28, 15:15:04,VALID,919.628,VALID,0,VALID,77.5683,VALID,493.8,VALID,23.2325,VALID,321,VALID,0,
2016-10-28, 15:16:04,VALID,919.665,VALID,0,VALID,77.9799,VALID,496.486,VALID,23.1917,VALID,11,VALID,1.76992,
2016-10-28, 15:17:04,VALID,919.652,VALID,0,VALID,74.214,VALID,485.956,VALID,23.1119,VALID,259,VALID,0.914063,
2016-10-28, 15:18:04,VALID,919.711,VALID,0,VALID,79.4055,VALID,362.184,VALID,23.1527,VALID,3,VALID,0,
2016-10-28, 15:19:04,VALID,919.725,VALID,0,VALID,82.1804,VALID,234.222,VALID,23.1331,VALID,7,VALID,1.88008,
2016-10-28, 15:20:04,VALID,919.76,VALID,0,VALID,79.0243,VALID,230.354,VALID,22.9965,VALID,28,VALID,0.053125,
2016-10-28, 15:21:04,VALID,919.786,VALID,0,VALID,76.3561,VALID,259.148,VALID,23.0941,VALID,323,VALID,0,
2016-10-28, 15:22:04,VALID,919.792,VALID,0,VALID,80.9683,VALID,219.073,VALID,23.0941,VALID,7,VALID,0,
2016-10-28, 15:23:04,VALID,919.817,VALID,0,VALID,80.0535,VALID,195.973,VALID,23.0941,VALID,358,VALID,0.00078125,
2016-10-28, 15:24:04,VALID,919.792,VALID,0,VALID,82.31,VALID,190.063,VALID,22.8972,VALID,5,VALID,0.996875,
2016-10-28, 15:25:04,VALID,919.818,VALID,0,VALID,83.0114,VALID,205.427,VALID,22.663,VALID,20,VALID,0.800391,
2016-10-28, 15:26:04,VALID,919.839,VALID,0,VALID,81.906,VALID,197.047,VALID,22.5655,VALID,310,VALID,0,
2016-10-28, 15:27:04,VALID,919.835,VALID,0,VALID,83.3697,VALID,196.832,VALID,22.4696,VALID,1,VALID,0,
2016-10-28, 15:28:04,VALID,919.833,VALID,0,VALID,87.5321,VALID,266.561,VALID,22.4679,VALID,354,VALID,0,
2016-10-28, 15:29:04,VALID,919.829,VALID,0,VALID,83.9948,VALID,256.892,VALID,22.5672,VALID,18,VALID,0,
2016-10-28, 15:30:04,VALID,919.786,VALID,0,VALID,83.3773,VALID,287.405,VALID,22.5459,VALID,15,VALID,1.40313,
2016-10-28, 15:31:04,VALID,919.819,VALID,0,VALID,82.6836,VALID,429.979,VALID,22.3703,VALID,16,VALID,2.0793,
2016-10-28, 15:32:04,VALID,919.864,VALID,0,VALID,85.771,VALID,528.503,VALID,22.3313,VALID,332,VALID,0.304297,
2016-10-28, 15:33:04,VALID,919.898,VALID,0,VALID,82.432,VALID,517.759,VALID,22.4094,VALID,322,VALID,0.0667969,
2016-10-28, 15:34:04,VALID,919.875,VALID,0,VALID,84.315,VALID,529.47,VALID,22.5459,VALID,340,VALID,0,
2016-10-28, 15:35:04,VALID,919.884,VALID,0,VALID,81.9136,VALID,509.056,VALID,22.7428,VALID,21,VALID,1.5082,
2016-10-28, 15:36:04,VALID,919.886,VALID,0,VALID,81.5172,VALID,518.618,VALID,22.8582,VALID,4,VALID,0,
2016-10-28, 15:37:04,VALID,919.9,VALID,0,VALID,79.6113,VALID,493.585,VALID,23.0728,VALID,360,VALID,1.61172,
2016-10-28, 15:38:04,VALID,919.907,VALID,0,VALID,75.2889,VALID,473.493,VALID,23.2485,VALID,329,VALID,0.0316406,
2016-10-28, 15:39:04,VALID,919.944,VALID,0,VALID,74.8086,VALID,459.096,VALID,23.4454,VALID,322,VALID,0,
2016-10-28, 15:40:04,VALID,919.907,VALID,0,VALID,76.7373,VALID,486.601,VALID,23.5217,VALID,15,VALID,1.89063,
2016-10-28, 15:41:04,VALID,919.937,VALID,0,VALID,75.0144,VALID,504.114,VALID,23.307,VALID,27,VALID,1.23359,
2016-10-28, 15:42:04,VALID,919.964,VALID,0,VALID,77.8503,VALID,491.651,VALID,23.3053,VALID,4,VALID,1.68633,
2016-10-28, 15:43:04,VALID,920.03,VALID,0,VALID,79.8934,VALID,504.866,VALID,23.543,VALID,359,VALID,0.0226563,
2016-10-28, 15:44:04,VALID,920.012,VALID,0,VALID,77.5987,VALID,540.214,VALID,23.6388,VALID,327,VALID,0.200391,
2016-10-28, 15:45:04,VALID,920.027,VALID,0,VALID,77.5911,VALID,573.199,VALID,23.6193,VALID,343,VALID,0.331641,
2016-10-28, 15:46:04,VALID,919.996,VALID,0,VALID,77.2938,VALID,574.81,VALID,23.6797,VALID,12,VALID,0.00585938,
2016-10-28, 15:47:04,VALID,920.031,VALID,0,VALID,77.6064,VALID,582.976,VALID,23.8145,VALID,299,VALID,0,
2016-10-28, 15:48:04,VALID,920.036,VALID,0,VALID,76.8974,VALID,581.794,VALID,23.834,VALID,244,VALID,0,
2016-10-28, 15:49:04,VALID,920.035,VALID,0,VALID,74.4808,VALID,580.934,VALID,23.795,VALID,314,VALID,0,
2016-10-28, 15:50:04,VALID,920.019,VALID,0,VALID,74.0996,VALID,577.174,VALID,23.7737,VALID,272,VALID,0,
2016-10-28, 15:51:04,VALID,920.062,VALID,0,VALID,77.3472,VALID,563.207,VALID,23.9707,VALID,5,VALID,0,
2016-10-28, 15:52:04,VALID,920.047,VALID,0,VALID,75.1593,VALID,596.943,VALID,24.1641,VALID,345,VALID,0,
2016-10-28, 15:53:04,VALID,920.064,VALID,0,VALID,75.7996,VALID,590.926,VALID,24.4587,VALID,9,VALID,0,
2016-10-28, 15:54:04,VALID,920.069,VALID,0,VALID,72.3691,VALID,617.142,VALID,24.7711,VALID,321,VALID,0,
2016-10-28, 15:55:04,VALID,920.088,VALID,0,VALID,72.9256,VALID,620.15,VALID,24.945,VALID,2,VALID,0,
2016-10-28, 15:56:04,VALID,920.092,VALID,0,VALID,72.4682,VALID,589.422,VALID,25.1207,VALID,34,VALID,0,
2016-10-28, 15:57:04,VALID,920.153,VALID,0,VALID,72.2319,VALID,509.593,VALID,25.2379,VALID,347,VALID,0,
2016-10-28, 15:58:04,VALID,920.132,VALID,0,VALID,69.3655,VALID,493.155,VALID,25.2379,VALID,22,VALID,0,
2016-10-28, 15:59:04,VALID,920.122,VALID,0,VALID,68.2753,VALID,468.658,VALID,25.2379,VALID,5,VALID,0.0214844,
2016-10-28, 16:00:04,VALID,920.153,VALID,0,VALID,66.2094,VALID,540.751,VALID,25.0993,VALID,5,VALID,0.0859375,
2016-10-28, 16:01:04,VALID,920.126,VALID,0,VALID,66.0569,VALID,511.312,VALID,24.8455,VALID,10,VALID,0,
2016-10-28, 16:02:04,VALID,920.087,VALID,0,VALID,68.6107,VALID,487.353,VALID,24.7693,VALID,354,VALID,1.86055,
2016-10-28, 16:03:04,VALID,920.06,VALID,0,VALID,68.6412,VALID,505.403,VALID,24.4569,VALID,315,VALID,0.571875,
2016-10-28, 16:04:04,VALID,920.032,VALID,0,VALID,72.087,VALID,608.439,VALID,24.3026,VALID,86,VALID,0.373828,
2016-10-28, 16:05:04,VALID,920.044,VALID,0,VALID,71.9193,VALID,577.066,VALID,24.3593,VALID,347,VALID,0.901172,
2016-10-28, 16:06:04,VALID,920.008,VALID,0,VALID,71.5,VALID,563.421,VALID,24.3983,VALID,16,VALID,1.55352,
2016-10-28, 16:07:04,VALID,920.035,VALID,0,VALID,73.3754,VALID,580.397,VALID,24.4178,VALID,5,VALID,0.00585938,
2016-10-28, 16:08:04,VALID,920.006,VALID,0,VALID,70.4099,VALID,596.298,VALID,24.3788,VALID,265,VALID,0.0148437,
2016-10-28, 16:09:04,VALID,920.01,VALID,0,VALID,74.3207,VALID,631.539,VALID,24.2812,VALID,359,VALID,0.684766,
2016-10-28, 16:10:04,VALID,920.047,VALID,0,VALID,69.3655,VALID,631.861,VALID,24.2812,VALID,328,VALID,0.394531,
2016-10-28, 16:11:04,VALID,920.003,VALID,0,VALID,69.1063,VALID,640.994,VALID,24.2793,VALID,318,VALID,0.308594,
2016-10-28, 16:12:04,VALID,919.983,VALID,0,VALID,70.5318,VALID,677.524,VALID,24.3184,VALID,7,VALID,0.260156,
2016-10-28, 16:13:04,VALID,919.99,VALID,0,VALID,71.965,VALID,711.905,VALID,24.4178,VALID,8,VALID,0.0488281,
2016-10-28, 16:14:04,VALID,919.974,VALID,0,VALID,69.922,VALID,730.707,VALID,24.7088,VALID,281,VALID,0,
2016-10-28, 16:15:04,VALID,919.963,VALID,0,VALID,69.4341,VALID,734.468,VALID,25.0231,VALID,345,VALID,0,
2016-10-28, 16:16:04,VALID,919.972,VALID,0,VALID,65.2641,VALID,738.98,VALID,25.0993,VALID,330,VALID,1.43867,
2016-10-28, 16:17:04,VALID,919.973,VALID,0,VALID,67.8865,VALID,711.798,VALID,25.0212,VALID,358,VALID,0,
2016-10-28, 16:18:04,VALID,919.91,VALID,0,VALID,70.7453,VALID,704.062,VALID,25.1383,VALID,356,VALID,0,
2016-10-28, 16:19:04,VALID,919.905,VALID,0,VALID,65.973,VALID,594.902,VALID,25.234,VALID,297,VALID,0.223828,
2016-10-28, 16:20:04,VALID,919.93,VALID,0,VALID,69.213,VALID,579.752,VALID,25.195,VALID,27,VALID,0.0078125,
2016-10-28, 16:21:04,VALID,919.923,VALID,0,VALID,68.9004,VALID,486.386,VALID,25.4117,VALID,42,VALID,0.8125,
2016-10-28, 16:22:04,VALID,919.886,VALID,0,VALID,69.7314,VALID,439.005,VALID,25.4703,VALID,24,VALID,0.597656,
2016-10-28, 16:23:04,VALID,919.907,VALID,0,VALID,68.8623,VALID,508.626,VALID,25.4879,VALID,360,VALID,0,
2016-10-28, 16:24:04,VALID,919.908,VALID,0,VALID,65.9959,VALID,614.026,VALID,25.5289,VALID,16,VALID,0.510156,
2016-10-28, 16:25:04,VALID,919.937,VALID,0,VALID,67.2157,VALID,650.986,VALID,25.275,VALID,17,VALID,1.73242,
2016-10-28, 16:26:04,VALID,919.955,VALID,0,VALID,71.7973,VALID,674.301,VALID,25.1169,VALID,343,VALID,1.22695,
2016-10-28, 16:27:04,VALID,919.894,VALID,0,VALID,68.6565,VALID,727.377,VALID,25.1169,VALID,34,VALID,0.825781,
2016-10-28, 16:28:04,VALID,919.947,VALID,0,VALID,68.6794,VALID,731.997,VALID,25.234,VALID,46,VALID,0.136328,
2016-10-28, 16:29:04,VALID,919.931,VALID,0,VALID,66.1026,VALID,732.211,VALID,25.2945,VALID,281,VALID,0.0804688,
2016-10-28, 16:30:04,VALID,919.929,VALID,0,VALID,66.3085,VALID,705.888,VALID,25.236,VALID,231,VALID,0,
2016-10-28, 16:31:04,VALID,919.914,VALID,0,VALID,67.5892,VALID,666.565,VALID,25.1755,VALID,292,VALID,0,
2016-10-28, 16:32:04,VALID,919.922,VALID,0,VALID,70.3336,VALID,634.762,VALID,25.2536,VALID,283,VALID,0.0015625,
2016-10-28, 16:33:04,VALID,919.924,VALID,0,VALID,65.5385,VALID,574.38,VALID,25.3707,VALID,14,VALID,0.559375,
2016-10-28, 16:34:04,VALID,919.94,VALID,0,VALID,68.9309,VALID,521.304,VALID,25.234,VALID,271,VALID,0,
2016-10-28, 16:35:04,VALID,919.953,VALID,0,VALID,68.2448,VALID,535.594,VALID,25.1559,VALID,273,VALID,0,
2016-10-28, 16:36:04,VALID,919.958,VALID,0,VALID,68.9919,VALID,540.859,VALID,25.3297,VALID,202,VALID,0,
2016-10-28, 16:37:04,VALID,919.95,VALID,0,VALID,66.4,VALID,634.87,VALID,25.4664,VALID,231,VALID,0.241797,
2016-10-28, 16:38:04,VALID,919.967,VALID,0,VALID,69.6247,VALID,658.507,VALID,25.2731,VALID,247,VALID,0,
2016-10-28, 16:39:04,VALID,919.944,VALID,0,VALID,68.7556,VALID,665.383,VALID,25.3317,VALID,43,VALID,0.364062,
2016-10-28, 16:40:04,VALID,919.946,VALID,0,VALID,68.8013,VALID,701.161,VALID,25.4683,VALID,42,VALID,0.679688,
2016-10-28, 16:41:04,VALID,919.933,VALID,0,VALID,71.1189,VALID,618.216,VALID,25.7417,VALID,13,VALID,0,
2016-10-28, 16:42:04,VALID,919.922,VALID,0,VALID,61.925,VALID,285.901,VALID,25.8804,VALID,347,VALID,2.00859,
2016-10-28, 16:43:04,VALID,919.909,VALID,0,VALID,64.517,VALID,539.569,VALID,25.4098,VALID,10,VALID,1.85586,
2016-10-28, 16:44:04,VALID,919.962,VALID,0,VALID,66.5829,VALID,375.399,VALID,25.0974,VALID,314,VALID,0.0335938,
2016-10-28, 16:45:04,VALID,919.94,VALID,0,VALID,67.452,VALID,644.539,VALID,25.0583,VALID,315,VALID,0,
2016-10-28, 16:46:04,VALID,919.932,VALID,0,VALID,67.3681,VALID,616.605,VALID,25.1579,VALID,220,VALID,0,
2016-10-28, 16:47:04,VALID,919.916,VALID,0,VALID,67.2462,VALID,570.513,VALID,25.1383,VALID,280,VALID,0.130859,
2016-10-28, 16:48:04,VALID,919.923,VALID,0,VALID,67.6197,VALID,565.893,VALID,25.0993,VALID,251,VALID,0,
2016-10-28, 16:49:04,VALID,919.927,VALID,0,VALID,68.5955,VALID,444.591,VALID,25.1188,VALID,25,VALID,1.04023,
2016-10-28, 16:50:04,VALID,919.928,VALID,0,VALID,66.8726,VALID,409.458,VALID,25.234,VALID,344,VALID,0.267578,
2016-10-28, 16:51:04,VALID,919.946,VALID,0,VALID,68.1228,VALID,391.838,VALID,25.3531,VALID,2,VALID,0.00429688,
2016-10-28, 16:52:04,VALID,919.928,VALID,0,VALID,67.0403,VALID,375.185,VALID,25.236,VALID,290,VALID,0.159375,
2016-10-28, 16:53:04,VALID,919.92,VALID,0,VALID,67.4901,VALID,368.738,VALID,24.9412,VALID,348,VALID,1.58203,
2016-10-28, 16:54:04,VALID,919.961,VALID,0,VALID,68.5498,VALID,368.093,VALID,24.7283,VALID,292,VALID,1.4,
2016-10-28, 16:55:04,VALID,919.98,VALID,0,VALID,70.1507,VALID,373.895,VALID,24.6307,VALID,352,VALID,0.278906,
2016-10-28, 16:56:04,VALID,919.972,VALID,0,VALID,70.7072,VALID,382.491,VALID,24.6874,VALID,8,VALID,0,
2016-10-28, 16:57:04,VALID,919.971,VALID,0,VALID,70.4709,VALID,384.102,VALID,24.8436,VALID,297,VALID,0,
2016-10-28, 16:58:04,VALID,919.966,VALID,0,VALID,71.3704,VALID,381.738,VALID,24.9626,VALID,4,VALID,0.0105469,
2016-10-28, 16:59:04,VALID,919.973,VALID,0,VALID,70.9206,VALID,381.309,VALID,25.0993,VALID,355,VALID,0.606641,
2016-10-28, 17:00:04,VALID,919.968,VALID,0,VALID,70.1964,VALID,383.028,VALID,25.2555,VALID,359,VALID,0.802734,
2016-10-28, 17:01:04,VALID,919.94,VALID,0,VALID,66.7735,VALID,386.036,VALID,25.275,VALID,357,VALID,0.2,
2016-10-28, 17:02:04,VALID,919.934,VALID,0,VALID,68.8242,VALID,387.755,VALID,25.2555,VALID,20,VALID,0.711328,
2016-10-28, 17:03:04,VALID,919.916,VALID,0,VALID,67.8332,VALID,389.259,VALID,25.2164,VALID,14,VALID,0,
2016-10-28, 17:04:04,VALID,919.911,VALID,0,VALID,67.7798,VALID,396.028,VALID,25.1188,VALID,4,VALID,1.43516,
2016-10-28, 17:05:04,VALID,919.896,VALID,0,VALID,68.6412,VALID,405.268,VALID,25.0974,VALID,13,VALID,0.216016,
2016-10-28, 17:06:04,VALID,919.894,VALID,0,VALID,68.0924,VALID,418.483,VALID,25.1579,VALID,34,VALID,0,
2016-10-28, 17:07:04,VALID,919.876,VALID,0,VALID,69.0986,VALID,438.36,VALID,25.275,VALID,17,VALID,0.040625,
2016-10-28, 17:08:04,VALID,919.853,VALID,0,VALID,68.5498,VALID,451.038,VALID,25.5093,VALID,21,VALID,0.0195313,
2016-10-28, 17:09:04,VALID,919.863,VALID,0,VALID,69.1291,VALID,448.567,VALID,25.5874,VALID,360,VALID,0,
2016-10-28, 17:10:04,VALID,919.895,VALID,0,VALID,64.9363,VALID,430.732,VALID,25.607,VALID,360,VALID,0,
2016-10-28, 17:11:04,VALID,919.881,VALID,0,VALID,65.7596,VALID,427.186,VALID,25.5874,VALID,303,VALID,0,
2016-10-28, 17:12:04,VALID,919.87,VALID,0,VALID,63.8461,VALID,424.93,VALID,25.5484,VALID,2,VALID,0.353516,
2016-10-28, 17:13:04,VALID,919.887,VALID,0,VALID,65.5385,VALID,432.021,VALID,25.3941,INVALID,360,VALID,0.00195313,
2016-10-28, 17:14:04,VALID,919.844,VALID,0,VALID,66.1484,VALID,440.724,VALID,25.275,VALID,350,VALID,0.772656,
2016-10-28, 17:15:04,VALID,919.857,VALID,0,VALID,68.5955,VALID,455.98,VALID,24.9626,VALID,21,VALID,0.969531,
2016-10-28, 17:16:04,VALID,919.864,VALID,0,VALID,70.1126,VALID,466.187,VALID,24.9431,VALID,19,VALID,0,
2016-10-28, 17:17:04,VALID,919.89,VALID,0,VALID,67.978,VALID,487.031,VALID,25.0193,VALID,338,VALID,0.634375,
2016-10-28, 17:18:04,VALID,919.861,VALID,0,VALID,68.8699,VALID,519.478,VALID,24.9821,VALID,39,VALID,0.0632813,
2016-10-28, 17:19:04,VALID,919.858,VALID,0,VALID,70.387,VALID,544.082,VALID,25.0212,VALID,38,VALID,0,
2016-10-28, 17:20:04,VALID,919.845,VALID,0,VALID,71.4085,VALID,546.446,VALID,25.1383,VALID,21,VALID,0.35625,
2016-10-28, 17:21:04,VALID,919.801,VALID,0,VALID,65.5461,VALID,492.94,VALID,25.1969,VALID,38,VALID,0,
2016-10-28, 17:22:04,VALID,919.802,VALID,0,VALID,68.626,VALID,469.41,VALID,25.0993,VALID,35,VALID,1.11055,
2016-10-28, 17:23:04,VALID,919.843,VALID,0,VALID,68.161,VALID,458.774,VALID,25.1579,VALID,340,VALID,0,
2016-10-28, 17:24:04,VALID,919.82,VALID,0,VALID,68.3897,VALID,453.509,VALID,25.2164,VALID,29,VALID,0.158984,
2016-10-28, 17:25:04,VALID,919.758,VALID,0,VALID,69.335,VALID,463.071,VALID,25.275,VALID,1,VALID,0.0289063,
2016-10-28, 17:26:04,VALID,919.797,VALID,0,VALID,68.7937,VALID,483.593,VALID,25.234,VALID,24,VALID,0.504297,
2016-10-28, 17:27:04,VALID,919.782,VALID,0,VALID,66.8574,VALID,515.073,VALID,25.2164,VALID,300,VALID,0.0710938,
2016-10-28, 17:28:04,VALID,919.751,VALID,0,VALID,66.4686,VALID,528.073,VALID,24.8064,VALID,12,VALID,0.515625,
2016-10-28, 17:29:04,VALID,919.726,VALID,0,VALID,69.3426,VALID,534.09,VALID,24.7479,VALID,340,VALID,0.129297,
2016-10-28, 17:30:04,VALID,919.727,VALID,0,VALID,69.5942,VALID,527.321,VALID,24.7869,VALID,344,VALID,0,
2016-10-28, 17:31:04,VALID,919.727,VALID,0,VALID,67.6502,VALID,524.098,VALID,24.8845,VALID,301,VALID,0,
2016-10-28, 17:32:04,VALID,919.664,VALID,0,VALID,69.396,VALID,516.255,VALID,24.9998,VALID,20,VALID,0.00429688,
2016-10-28, 17:33:04,VALID,919.679,VALID,0,VALID,67.1089,VALID,514.321,VALID,25.1383,VALID,2,VALID,0.396094,
2016-10-28, 17:34:04,VALID,919.651,VALID,0,VALID,69.0072,VALID,495.733,VALID,25.1559,VALID,25,VALID,1.23711,
2016-10-28, 17:35:04,VALID,919.634,VALID,0,VALID,69.7619,VALID,487.89,VALID,25.2555,VALID,27,VALID,0.0195313,
2016-10-28, 17:36:04,VALID,919.661,VALID,0,VALID,70.852,VALID,495.304,VALID,25.4117,VALID,17,VALID,0,
2016-10-28, 17:37:04,VALID,919.629,VALID,0,VALID,66.1026,VALID,486.386,VALID,25.5464,VALID,280,VALID,0,
2016-10-28, 17:38:04,VALID,919.634,VALID,0,VALID,64.4865,VALID,507.337,VALID,25.5484,VALID,279,VALID,0,
2016-10-28, 17:39:04,VALID,919.605,VALID,0,VALID,68.4507,VALID,477.576,VALID,25.234,VALID,286,VALID,0,
2016-10-28, 17:40:04,VALID,919.618,VALID,0,VALID,67.9094,VALID,487.89,VALID,25.2555,VALID,19,VALID,0.193359,
2016-10-28, 17:41:04,VALID,919.646,VALID,0,VALID,70.8063,VALID,498.205,VALID,25.2555,VALID,21,VALID,0,
2016-10-28, 17:42:04,VALID,919.603,VALID,0,VALID,68.7937,VALID,481.014,VALID,25.3902,VALID,330,VALID,0,
2016-10-28, 17:43:04,VALID,919.611,VALID,0,VALID,68.039,VALID,455.121,VALID,25.3317,VALID,43,VALID,0.0640625,
2016-10-28, 17:44:04,VALID,919.613,VALID,0,VALID,71.3399,VALID,447.922,VALID,25.4703,VALID,7,VALID,0.000390625,
2016-10-28, 17:45:04,VALID,919.593,VALID,0,VALID,65.4775,VALID,452.435,VALID,25.5855,VALID,14,VALID,0,
2016-10-28, 17:46:04,VALID,919.567,VALID,0,VALID,67.4749,VALID,462.534,VALID,25.6616,VALID,358,VALID,0,
2016-10-28, 17:47:04,VALID,919.548,VALID,0,VALID,64.2959,VALID,478.328,VALID,25.6831,VALID,299,VALID,0,
2016-10-28, 17:48:04,VALID,919.531,VALID,0,VALID,63.2134,VALID,508.089,VALID,25.5074,VALID,274,VALID,0,
2016-10-28, 17:49:04,VALID,919.527,VALID,0,VALID,64.1739,VALID,625.2,VALID,25.3512,VALID,255,VALID,0,
2016-10-28, 17:50:04,VALID,919.498,VALID,0,VALID,67.1547,VALID,545.694,VALID,25.2731,VALID,253,VALID,0,
2016-10-28, 17:51:04,VALID,919.472,VALID,0,VALID,64.8219,VALID,525.065,VALID,25.1755,VALID,289,VALID,0,
2016-10-28, 17:52:04,VALID,919.449,VALID,0,VALID,67.4291,VALID,519.8,VALID,25.2164,VALID,289,VALID,0,
2016-10-28, 17:53:04,VALID,919.464,VALID,0,VALID,67.2157,VALID,507.767,VALID,25.4488,VALID,3,VALID,0,
2016-10-28, 17:54:04,VALID,919.44,VALID,0,VALID,69.9067,VALID,505.081,VALID,25.7007,VALID,38,VALID,0.292188,
2016-10-28, 17:55:04,VALID,919.406,VALID,0,VALID,67.0403,VALID,512.065,VALID,25.8374,VALID,7,VALID,0,
2016-10-28, 17:56:04,VALID,919.39,VALID,0,VALID,65.691,VALID,487.675,VALID,25.8589,VALID,1,VALID,0.00195313,
2016-10-28, 17:57:04,VALID,919.33,VALID,0,VALID,66.5524,VALID,513.891,VALID,25.6441,VALID,52,VALID,0.68125,
2016-10-28, 17:58:04,VALID,919.347,VALID,0,VALID,69.7085,VALID,686.334,VALID,25.5269,VALID,71,VALID,0,
2016-10-28, 17:59:04,VALID,919.323,VALID,0,VALID,68.7937,VALID,755.849,VALID,25.7222,VALID,344,VALID,0,
2016-10-28, 18:00:04,VALID,919.29,VALID,0,VALID,69.2587,VALID,519.263,VALID,26.0346,VALID,35,VALID,0,
2016-10-28, 18:01:04,VALID,919.284,VALID,0,VALID,62.9084,VALID,523.023,VALID,26.2494,VALID,334,VALID,0,
2016-10-28, 18:02:04,VALID,919.303,VALID,0,VALID,63.5564,VALID,562.347,VALID,26.2104,VALID,261,VALID,0,
2016-10-28, 18:03:04,VALID,919.272,VALID,0,VALID,63.7013,VALID,786.254,VALID,26.1518,VALID,251,VALID,0,
2016-10-28, 18:04:04,VALID,919.284,VALID,0,VALID,66.3466,VALID,799.362,VALID,26.3646,VALID,327,VALID,0,